QPF
0.04 0.04 0.03 0.03 0.03 0.03 0.04 0.04 0.03 0.03 0.04 0.03 0.02 0.01 0.01 0.01 0.01 0.01 0.02 0.01 0.02 0.02 0.02 0.02 0.02 0.02 0.01 0.02 0.03 0.03 0.02 0.02 0.01 0.01 0.01 0.01 0.01 0.00 0.00 0.00 0.00 0.00 0.01
0.04 0.04 0.04 0.04 0.04 0.03 0.05 0.04 0.03 0.05 0.05 0.04 0.03 0.02 0.01 0.01 0.01 0.01 0.02 0.02 0.02 0.02 0.03 0.04 0.05 0.04 0.02 0.02 0.02 0.03 0.02 0.02 0.02 0.01 0.01 0.01 0.01 0.01 0.00 0.00 0.00 0.00 0.00
0.05 0.05 0.03 0.04 0.05 0.04 0.05 0.05 0.04 0.05 0.05 0.05 0.05 0.04 0.02 0.02 0.01 0.03 0.03 0.03 0.03 0.02 0.03 0.03 0.05 0.05 0.04 0.03 0.02 0.03 0.02 0.02 0.01 0.01 0.01 0.01 0.01 0.01 0.00 0.00 0.00 0.00 0.00
0.04 0.04 0.04 0.04 0.05 0.05 0.05 0.06 0.06 0.05 0.06 0.06 0.06 0.05 0.04 0.03 0.02 0.02 0.03 0.03 0.03 0.02 0.02 0.01 0.02 0.02 0.02 0.03 0.04 0.05 0.05 0.03 0.02 0.02 0.01 0.01 0.01 0.01 0.00 0.00 0.00 0.00 0.00
0.03 0.04 0.06 0.06 0.05 0.06 0.06 0.05 0.06 0.06 0.07 0.07 0.07 0.06 0.05 0.05 0.05 0.03 0.02 0.03 0.04 0.04 0.03 0.01 0.01 0.01 0.02 0.03 0.04 0.05 0.05 0.03 0.02 0.01 0.02 0.02 0.01 0.01 0.01 0.01 0.00 0.00 0.00
0.05 0.06 0.07 0.07 0.05 0.06 0.08 0.07 0.09 0.08 0.08 0.08 0.05 0.04 0.05 0.04 0.04 0.05 0.04 0.03 0.04 0.04 0.02 0.01 0.02 0.01 0.01 0.02 0.04 0.04 0.04 0.04 0.03 0.02 0.02 0.02 0.02 0.01 0.01 0.01 0.01 0.01 0.01
0.06 0.07 0.05 0.07 0.06 0.07 0.08 0.08 0.08 0.07 0.06 0.06 0.07 0.05 0.03 0.02 0.02 0.04 0.04 0.04 0.02 0.02 0.02 0.01 0.02 0.03 0.02 0.01 0.01 0.02 0.04 0.06 0.06 0.04 0.03 0.02 0.01 0.01 0.01 0.01 0.01 0.01 0.01
0.06 0.05 0.06 0.07 0.08 0.08 0.08 0.08 0.08 0.08 0.07 0.06 0.09 0.09 0.05 0.05 0.03 0.02 0.02 0.03 0.02 0.03 0.03 0.01 0.02 0.02 0.02 0.02 0.01 0.01 0.02 0.04 0.06 0.06 0.04 0.03 0.03 0.02 0.02 0.01 0.01 0.01 0.01
0.08 0.08 0.08 0.09 0.10 0.08 0.08 0.08 0.08 0.09 0.09 0.06 0.08 0.09 0.08 0.07 0.06 0.03 0.01 0.01 0.03 0.05 0.03 0.03 0.01 0.01 0.02 0.03 0.03 0.01 0.01 0.01 0.03 0.06 0.06 0.05 0.04 0.03 0.02 0.02 0.02 0.01 0.01
0.09 0.10 0.10 0.12 0.12 0.09 0.10 0.07 0.07 0.09 0.10 0.08 0.07 0.08 0.07 0.06 0.07 0.05 0.03 0.02 0.03 0.04 0.03 0.02 0.01 0.01 0.02 0.02 0.03 0.01 0.00 0.00 0.01 0.03 0.06 0.07 0.06 0.04 0.03 0.04 0.03 0.03 0.02
0.08 0.09 0.11 0.13 0.14 0.10 0.10 0.10 0.09 0.07 0.06 0.07 0.08 0.07 0.06 0.07 0.08 0.07 0.06 0.06 0.05 0.05 0.04 0.04 0.03 0.03 0.02 0.02 0.04 0.02 0.00 0.00 0.01 0.01 0.02 0.04 0.05 0.05 0.05 0.04 0.03 0.03 0.04
0.07 0.06 0.08 0.12 0.14 0.11 0.12 0.12 0.10 0.08 0.07 0.08 0.09 0.08 0.07 0.07 0.08 0.08 0.07 0.06 0.06 0.05 0.06 0.04 0.03 0.03 0.03 0.03 0.02 0.01 0.01 0.00 0.00 0.00 0.00 0.01 0.02 0.04 0.04 0.04 0.04 0.05 0.05
0.08 0.06 0.06 0.08 0.11 0.12 0.11 0.12 0.14 0.11 0.10 0.09 0.08 0.08 0.08 0.07 0.07 0.07 0.07 0.06 0.05 0.03 0.04 0.03 0.02 0.02 0.02 0.02 0.03 0.02 0.01 0.02 0.01 0.00 0.00 0.01 0.01 0.02 0.02 0.04 0.05 0.06 0.06
0.05 0.06 0.09 0.08 0.09 0.10 0.09 0.12 0.12 0.12 0.13 0.12 0.08 0.10 0.09 0.07 0.08 0.06 0.06 0.07 0.06 0.05 0.05 0.04 0.02 0.02 0.02 0.02 0.03 0.03 0.02 0.02 0.02 0.02 0.02 0.02 0.02 0.02 0.02 0.03 0.03 0.04 0.04
0.04 0.05 0.07 0.09 0.09 0.08 0.08 0.10 0.10 0.11 0.13 0.12 0.11 0.13 0.12 0.11 0.11 0.09 0.09 0.09 0.10 0.08 0.06 0.05 0.04 0.03 0.03 0.03 0.03 0.03 0.04 0.04 0.04 0.03 0.03 0.02 0.02 0.03 0.03 0.03 0.03 0.02 0.02
0.06 0.07 0.07 0.08 0.08 0.07 0.06 0.07 0.09 0.11 0.13 0.13 0.13 0.14 0.14 0.15 0.15 0.14 0.13 0.12 0.11 0.10 0.07 0.04 0.04 0.03 0.03 0.03 0.03 0.03 0.04 0.04 0.04 0.04 0.04 0.03 0.03 0.04 0.04 0.04 0.04 0.04 0.04
0.08 0.09 0.09 0.08 0.09 0.07 0.06 0.07 0.08 0.10 0.12 0.12 0.11 0.13 0.14 0.16 0.17 0.14 0.12 0.10 0.10 0.09 0.08 0.06 0.05 0.05 0.06 0.07 0.06 0.05 0.04 0.04 0.04 0.04 0.04 0.04 0.05 0.06 0.07 0.07 0.05 0.05 0.06
0.09 0.11 0.11 0.09 0.11 0.10 0.09 0.11 0.11 0.10 0.10 0.11 0.12 0.13 0.14 0.17 0.18 0.14 0.12 0.11 0.12 0.14 0.15 0.13 0.11 0.10 0.10 0.09 0.08 0.08 0.06 0.05 0.06 0.08 0.08 0.07 0.07 0.07 0.09 0.09 0.08 0.08 0.08
0.04 0.05 0.05 0.06 0.08 0.11 0.13 0.13 0.13 0.11 0.11 0.11 0.12 0.13 0.16 0.19 0.18 0.15 0.13 0.14 0.15 0.15 0.16 0.16 0.13 0.11 0.10 0.09 0.08 0.08 0.08 0.09 0.09 0.09 0.09 0.09 0.08 0.08 0.08 0.09 0.09 0.09 0.09
0.05 0.04 0.03 0.04 0.04 0.05 0.07 0.10 0.12 0.13 0.13 0.12 0.12 0.13 0.15 0.15 0.15 0.15 0.15 0.14 0.15 0.14 0.14 0.13 0.12 0.10 0.11 0.11 0.12 0.14 0.16 0.16 0.14 0.11 0.11 0.09 0.09 0.08 0.07 0.07 0.06 0.07 0.07
0.05 0.05 0.04 0.05 0.06 0.05 0.05 0.07 0.07 0.07 0.09 0.10 0.11 0.13 0.15 0.17 0.16 0.15 0.13 0.12 0.13 0.14 0.13 0.13 0.14 0.14 0.15 0.17 0.18 0.19 0.21 0.21 0.17 0.13 0.12 0.11 0.10 0.09 0.10 0.10 0.11 0.10 0.10
0.06 0.06 0.06 0.06 0.07 0.07 0.08 0.09 0.10 0.11 0.13 0.14 0.14 0.14 0.13 0.13 0.14 0.15 0.15 0.14 0.14 0.14 0.14 0.14 0.13 0.13 0.13 0.13 0.13 0.13 0.15 0.15 0.13 0.12 0.11 0.12 0.11 0.11 0.11 0.11 0.12 0.11 0.10
0.05 0.05 0.04 0.04 0.04 0.06 0.09 0.10 0.12 0.12 0.12 0.11 0.11 0.11 0.11 0.13 0.16 0.15 0.15 0.14 0.12 0.10 0.10 0.10 0.10 0.10 0.10 0.09 0.09 0.09 0.10 0.11 0.11 0.10 0.10 0.11 0.11 0.12 0.12 0.11 0.11 0.10 0.09
0.03 0.03 0.03 0.03 0.04 0.06 0.06 0.05 0.05 0.06 0.07 0.07 0.09 0.11 0.14 0.16 0.16 0.15 0.14 0.13 0.10 0.09 0.10 0.09 0.09 0.09 0.08 0.08 0.08 0.08 0.10 0.11 0.11 0.11 0.11 0.12 0.12 0.11 0.10 0.08 0.07 0.06 0.06
0.03 0.03 0.04 0.04 0.04 0.04 0.04 0.03 0.04 0.04 0.06 0.07 0.08 0.09 0.11 0.11 0.13 0.14 0.13 0.12 0.11 0.10 0.09 0.07 0.06 0.05 0.05 0.06 0.08 0.09 0.11 0.12 0.13 0.13 0.12 0.12 0.12 0.10 0.08 0.07 0.06 0.05 0.04
0.04 0.05 0.04 0.04 0.04 0.04 0.05 0.04 0.05 0.05 0.06 0.07 0.08 0.08 0.11 0.12 0.12 0.12 0.10 0.10 0.09 0.08 0.06 0.05 0.04 0.03 0.03 0.03 0.04 0.05 0.06 0.08 0.09 0.08 0.07 0.07 0.07 0.06 0.05 0.05 0.04 0.04 0.04
MSLP
1017.91 1018.03 1018.08 1018.10 1018.10 1018.12 1018.19 1018.29 1018.43 1018.58 1018.70 1018.80 1018.86 1018.90 1018.96 1019.06 1019.24 1019.51 1019.86 1020.26 1020.67 1021.05 1021.36 1021.59 1021.72 1021.79 1021.84 1021.88 1021.95 1022.08 1022.24 1022.44 1022.66 1022.86 1023.04 1023.20 1023.33 1023.45 1023.56 1023.69 1023.82 1023.96 1024.09
1017.90 1018.01 1018.07 1018.08 1018.09 1018.12 1018.19 1018.31 1018.46 1018.62 1018.78 1018.91 1019.00 1019.07 1019.14 1019.23 1019.37 1019.59 1019.87 1020.20 1020.55 1020.90 1021.20 1021.44 1021.62 1021.75 1021.85 1021.94 1022.05 1022.19 1022.36 1022.55 1022.75 1022.94 1023.12 1023.27 1023.41 1023.54 1023.67 1023.80 1023.94 1024.08 1024.21
1017.89 1018.00 1018.07 1018.10 1018.13 1018.18 1018.27 1018.39 1018.56 1018.74 1018.92 1019.07 1019.19 1019.27 1019.33 1019.39 1019.49 1019.63 1019.83 1020.08 1020.36 1020.65 1020.94 1021.19 1021.41 1021.60 1021.77 1021.92 1022.08 1022.25 1022.43 1022.61 1022.80 1022.97 1023.14 1023.29 1023.43 1023.56 1023.70 1023.84 1023.98 1024.13 1024.26
1017.88 1018.00 1018.08 1018.14 1018.19 1018.26 1018.37 1018.51 1018.69 1018.89 1019.08 1019.24 1019.36 1019.44 1019.49 1019.52 1019.56 1019.63 1019.74 1019.90 1020.10 1020.34 1020.59 1020.85 1021.10 1021.34 1021.57 1021.78 1021.99 1022.19 1022.39 1022.57 1022.75 1022.91 1023.06 1023.20 1023.34 1023.48 1023.63 1023.77 1023.93 1024.07 1024.22
1017.85 1017.97 1018.07 1018.16 1018.24 1018.34 1018.46 1018.62 1018.80 1019.00 1019.19 1019.35 1019.48 1019.55 1019.58 1019.58 1019.57 1019.57 1019.60 1019.68 1019.80 1019.97 1020.19 1020.43 1020.70 1020.97 1021.24 1021.50 1021.76 1021.99 1022.21 1022.41 1022.58 1022.74 1022.88 1023.02 1023.15 1023.29 1023.44 1023.60 1023.75 1023.91 1024.06
1017.78 1017.90 1018.02 1018.13 1018.24 1018.36 1018.50 1018.66 1018.84 1019.02 1019.21 1019.37 1019.49 1019.56 1019.58 1019.56 1019.51 1019.46 1019.43 1019.43 1019.48 1019.58 1019.74 1019.95 1020.20 1020.48 1020.78 1021.08 1021.37 1021.64 1021.89 1022.11 1022.30 1022.46 1022.60 1022.74 1022.88 1023.02 1023.16 1023.32 1023.48 1023.64 1023.80
1017.65 1017.77 1017.90 1018.02 1018.15 1018.29 1018.43 1018.59 1018.76 1018.94 1019.11 1019.26 1019.38 1019.46 1019.48 1019.46 1019.40 1019.32 1019.24 1019.18 1019.16 1019.19 1019.29 1019.44 1019.66 1019.92 1020.22 1020.53 1020.85 1021.15 1021.44 1021.69 1021.90 1022.09 1022.25 1022.40 1022.54 1022.68 1022.83 1022.98 1023.14 1023.30 1023.46
1017.44 1017.55 1017.68 1017.82 1017.96 1018.11 1018.26 1018.41 1018.58 1018.74 1018.91 1019.06 1019.18 1019.27 1019.31 1019.31 1019.26 1019.17 1019.07 1018.96 1018.88 1018.84 1018.85 1018.93 1019.09 1019.31 1019.58 1019.89 1020.23 1020.56 1020.88 1021.17 1021.43 1021.66 1021.85 1022.02 1022.17 1022.32 1022.47 1022.62 1022.77 1022.92 1023.07
1017.14 1017.24 1017.36 1017.51 1017.66 1017.82 1017.97 1018.13 1018.30 1018.46 1018.63 1018.78 1018.93 1019.04 1019.12 1019.15 1019.12 1019.05 1018.94 1018.80 1018.66 1018.55 1018.47 1018.47 1018.54 1018.70 1018.92 1019.22 1019.55 1019.91 1020.27 1020.62 1020.93 1021.20 1021.43 1021.64 1021.81 1021.97 1022.11 1022.25 1022.39 1022.53 1022.66
1016.75 1016.83 1016.94 1017.08 1017.25 1017.42 1017.60 1017.78 1017.95 1018.13 1018.31 1018.49 1018.67 1018.82 1018.94 1019.01 1019.02 1018.97 1018.86 1018.70 1018.52 1018.33 1018.18 1018.08 1018.06 1018.14 1018.31 1018.56 1018.89 1019.26 1019.65 1020.04 1020.40 1020.73 1021.01 1021.24 1021.44 1021.61 1021.75 1021.88 1022.00 1022.12 1022.24
1016.26 1016.32 1016.42 1016.57 1016.75 1016.95 1017.16 1017.37 1017.59 1017.80 1018.01 1018.23 1018.44 1018.63 1018.80 1018.92 1018.97 1018.95 1018.85 1018.68 1018.46 1018.21 1017.98 1017.79 1017.68 1017.67 1017.77 1017.97 1018.27 1018.64 1019.05 1019.47 1019.87 1020.24 1020.55 1020.82 1021.03 1021.20 1021.34 1021.47 1021.57 1021.68 1021.79
1015.69 1015.72 1015.81 1015.97 1016.18 1016.42 1016.68 1016.95 1017.21 1017.47 1017.73 1018.00 1018.25 1018.49 1018.70 1018.86 1018.95 1018.96 1018.88 1018.70 1018.46 1018.17 1017.87 1017.60 1017.40 1017.31 1017.33 1017.48 1017.73 1018.08 1018.48 1018.90 1019.32 1019.71 1020.04 1020.32 1020.54 1020.71 1020.85 1020.96 1021.07 1021.17 1021.28
1015.06 1015.06 1015.15 1015.33 1015.56 1015.85 1016.17 1016.51 1016.84 1017.16 1017.48 1017.79 1018.08 1018.36 1018.61 1018.81 1018.94 1018.98 1018.91 1018.75 1018.49 1018.18 1017.84 1017.51 1017.25 1017.08 1017.02 1017.10 1017.29 1017.58 1017.95 1018.35 1018.74 1019.12 1019.44 1019.71 1019.92 1020.09 1020.22 1020.34 1020.44 1020.56 1020.68
1014.41 1014.40 1014.48 1014.67 1014.94 1015.28 1015.66 1016.06 1016.46 1016.85 1017.22 1017.57 1017.91 1018.22 1018.50 1018.73 1018.89 1018.96 1018.92 1018.78 1018.53 1018.22 1017.86 1017.50 1017.19 1016.96 1016.84 1016.84 1016.96 1017.18 1017.47 1017.81 1018.15 1018.47 1018.76 1019.00 1019.19 1019.34 1019.47 1019.59 1019.71 1019.86 1020.02
1013.80 1013.77 1013.85 1014.05 1014.35 1014.73 1015.17 1015.63 1016.08 1016.52 1016.94 1017.33 1017.69 1018.02 1018.32 1018.57 1018.76 1018.86 1018.86 1018.75 1018.55 1018.26 1017.92 1017.56 1017.23 1016.96 1016.79 1016.71 1016.75 1016.88 1017.08 1017.32 1017.57 1017.82 1018.04 1018.23 1018.38 1018.52 1018.64 1018.78 1018.93 1019.12 1019.34
1013.30 1013.25 1013.33 1013.53 1013.84 1014.25 1014.72 1015.21 1015.70 1016.17 1016.61 1017.02 1017.39 1017.74 1018.05 1018.32 1018.53 1018.66 1018.71 1018.66 1018.52 1018.29 1017.99 1017.67 1017.35 1017.07 1016.86 1016.72 1016.68 1016.71 1016.80 1016.93 1017.09 1017.24 1017.38 1017.50 1017.61 1017.73 1017.86 1018.01 1018.21 1018.45 1018.74
1012.98 1012.91 1012.97 1013.16 1013.47 1013.88 1014.35 1014.85 1015.35 1015.82 1016.26 1016.66 1017.03 1017.37 1017.69 1017.97 1018.21 1018.39 1018.49 1018.52 1018.45 1018.30 1018.09 1017.82 1017.55 1017.28 1017.05 1016.88 1016.77 1016.71 1016.70 1016.73 1016.78 1016.83 1016.89 1016.95 1017.03 1017.13 1017.27 1017.46 1017.70 1018.00 1018.36
1012.86 1012.78 1012.82 1012.99 1013.28 1013.66 1014.10 1014.58 1015.05 1015.49 1015.91 1016.29 1016.64 1016.97 1017.29 1017.58 1017.85 1018.08 1018.25 1018.35 1018.38 1018.32 1018.20 1018.02 1017.81 1017.59 1017.37 1017.18 1017.03 1016.91 1016.82 1016.77 1016.73 1016.70 1016.70 1016.72 1016.77 1016.86 1017.02 1017.24 1017.53 1017.89 1018.30
1012.97 1012.87 1012.89 1013.03 1013.28 1013.62 1014.01 1014.43 1014.86 1015.26 1015.63 1015.97 1016.30 1016.61 1016.92 1017.23 1017.53 1017.80 1018.04 1018.22 1018.34 1018.39 1018.36 1018.27 1018.14 1017.98 1017.80 1017.63 1017.46 1017.32 1017.19 1017.08 1016.99 1016.92 1016.88 1016.87 1016.92 1017.02 1017.20 1017.45 1017.78 1018.18 1018.63
1013.27 1013.17 1013.18 1013.28 1013.49 1013.77 1014.10 1014.46 1014.81 1015.16 1015.48 1015.78 1016.08 1016.38 1016.69 1017.00 1017.33 1017.64 1017.94 1018.19 1018.39 1018.52 1018.59 1018.59 1018.53 1018.44 1018.32 1018.18 1018.04 1017.91 1017.78 1017.66 1017.56 1017.49 1017.44 1017.44 1017.50 1017.63 1017.83 1018.10 1018.45 1018.87 1019.34
1013.71 1013.63 1013.62 1013.71 1013.88 1014.11 1014.38 1014.67 1014.96 1015.25 1015.52 1015.79 1016.06 1016.35 1016.65 1016.98 1017.33 1017.67 1018.00 1018.30 1018.56 1018.75 1018.89 1018.96 1018.98 1018.95 1018.89 1018.81 1018.72 1018.63 1018.54 1018.45 1018.39 1018.34 1018.33 1018.36 1018.45 1018.60 1018.82 1019.12 1019.47 1019.88 1020.33
1014.23 1014.17 1014.18 1014.27 1014.41 1014.61 1014.83 1015.07 1015.31 1015.55 1015.79 1016.03 1016.29 1016.57 1016.88 1017.21 1017.57 1017.93 1018.27 1018.60 1018.87 1019.10 1019.27 1019.38 1019.45 1019.48 1019.48 1019.46 1019.44 1019.41 1019.38 1019.36 1019.36 1019.37 1019.41 1019.49 1019.62 1019.80 1020.04 1020.33 1020.67 1021.05 1021.45
1014.77 1014.76 1014.80 1014.91 1015.05 1015.23 1015.44 1015.65 1015.86 1016.07 1016.29 1016.52 1016.78 1017.06 1017.37 1017.71 1018.06 1018.41 1018.75 1019.06 1019.33 1019.55 1019.72 1019.84 1019.93 1020.00 1020.04 1020.08 1020.12 1020.16 1020.21 1020.27 1020.34 1020.42 1020.53 1020.66 1020.82 1021.02 1021.26 1021.54 1021.85 1022.17 1022.51
1015.29 1015.34 1015.44 1015.59 1015.76 1015.96 1016.16 1016.37 1016.57 1016.78 1017.00 1017.23 1017.49 1017.78 1018.09 1018.42 1018.75 1019.08 1019.39 1019.66 1019.89 1020.07 1020.21 1020.31 1020.39 1020.46 1020.53 1020.61 1020.70 1020.80 1020.92 1021.05 1021.19 1021.34 1021.50 1021.68 1021.87 1022.07 1022.30 1022.55 1022.80 1023.06 1023.31
1015.78 1015.91 1016.08 1016.29 1016.51 1016.74 1016.97 1017.19 1017.41 1017.63 1017.85 1018.09 1018.36 1018.65 1018.95 1019.27 1019.58 1019.86 1020.12 1020.33 1020.50 1020.62 1020.70 1020.76 1020.81 1020.86 1020.93 1021.02 1021.15 1021.29 1021.46 1021.65 1021.84 1022.03 1022.23 1022.42 1022.62 1022.81 1023.01 1023.21 1023.41 1023.59 1023.76
1016.27 1016.49 1016.74 1017.01 1017.29 1017.56 1017.82 1018.07 1018.30 1018.53 1018.76 1019.01 1019.28 1019.56 1019.85 1020.14 1020.41 1020.65 1020.85 1021.00 1021.09 1021.14 1021.16 1021.16 1021.17 1021.19 1021.24 1021.33 1021.46 1021.63 1021.82 1022.03 1022.24 1022.45 1022.65 1022.84 1023.02 1023.19 1023.34 1023.49 1023.62 1023.73 1023.83
Thickness
5748 5747 5745 5744 5746 5745 5744 5742 5743 5741 5741 5741 5741 5741 5741 5740 5739 5737 5731 5726 5723 5722 5720 5719 5717 5716 5715 5713 5712 5711 5710 5709 5708 5707 5707 5706 5705 5704 5703 5703 5702 5701 5700
5747 5746 5744 5743 5744 5744 5744 5743 5743 5741 5742 5742 5742 5740 5740 5740 5737 5735 5734 5728 5725 5723 5721 5720 5718 5717 5715 5714 5712 5711 5710 5709 5708 5707 5706 5705 5705 5704 5703 5702 5701 5700 5700
5746 5746 5746 5744 5745 5744 5742 5742 5742 5742 5742 5742 5741 5741 5740 5739 5738 5735 5735 5733 5729 5725 5723 5721 5719 5718 5716 5715 5713 5712 5710 5709 5708 5707 5706 5705 5704 5703 5702 5701 5701 5700 5699
5746 5745 5746 5746 5744 5744 5743 5743 5743 5743 5743 5742 5742 5742 5741 5739 5738 5736 5736 5734 5733 5732 5726 5723 5721 5719 5718 5716 5714 5713 5711 5710 5709 5708 5706 5705 5704 5703 5702 5701 5700 5699 5698
5747 5746 5747 5746 5744 5744 5744 5745 5745 5744 5742 5741 5742 5741 5742 5741 5740 5739 5738 5737 5735 5733 5732 5726 5723 5721 5719 5718 5716 5715 5713 5711 5710 5708 5707 5706 5705 5703 5702 5701 5700 5699 5698
5747 5747 5747 5745 5745 5745 5744 5744 5742 5741 5741 5741 5744 5743 5742 5743 5742 5741 5740 5740 5737 5736 5735 5732 5727 5725 5722 5720 5718 5716 5715 5713 5711 5710 5708 5707 5705 5704 5703 5702 5700 5699 5698
5748 5746 5748 5746 5745 5746 5745 5745 5743 5741 5741 5742 5740 5738 5741 5744 5744 5743 5742 5741 5741 5738 5736 5734 5732 5730 5727 5723 5721 5719 5717 5715 5713 5711 5710 5708 5707 5705 5704 5702 5701 5700 5699
5749 5749 5747 5747 5747 5745 5744 5744 5742 5742 5743 5743 5739 5735 5733 5736 5741 5746 5744 5742 5742 5740 5739 5737 5734 5731 5730 5729 5726 5722 5719 5717 5715 5713 5712 5710 5708 5706 5705 5703 5702 5700 5699
5750 5749 5749 5748 5747 5747 5745 5744 5743 5741 5740 5743 5743 5737 5732 5730 5738 5744 5744 5744 5742 5741 5741 5740 5737 5735 5732 5731 5729 5725 5722 5719 5717 5715 5713 5712 5710 5708 5706 5704 5702 5701 5699
5751 5750 5749 5749 5748 5748 5746 5745 5746 5744 5741 5740 5741 5740 5739 5738 5732 5735 5741 5744 5743 5741 5741 5741 5741 5738 5735 5733 5730 5728 5724 5721 5719 5716 5714 5713 5711 5709 5707 5705 5703 5701 5700
5752 5752 5751 5750 5749 5748 5748 5746 5745 5743 5743 5741 5740 5740 5738 5736 5736 5731 5732 5737 5741 5743 5743 5741 5740 5739 5738 5735 5732 5730 5726 5722 5720 5718 5716 5713 5712 5710 5708 5706 5704 5702 5700
5753 5753 5752 5751 5749 5749 5748 5746 5744 5743 5742 5741 5740 5740 5737 5734 5734 5734 5732 5733 5735 5740 5741 5740 5740 5738 5737 5735 5732 5729 5726 5723 5720 5718 5716 5714 5712 5710 5708 5706 5704 5702 5700
5754 5754 5753 5751 5750 5749 5747 5746 5744 5743 5741 5738 5737 5738 5738 5737 5737 5736 5733 5732 5733 5738 5738 5739 5739 5737 5736 5734 5731 5728 5724 5722 5719 5717 5715 5713 5711 5709 5707 5705 5703 5701 5699
5755 5755 5753 5751 5749 5748 5747 5746 5744 5742 5740 5738 5737 5736 5735 5736 5737 5735 5731 5728 5725 5730 5733 5734 5736 5734 5733 5731 5728 5725 5723 5720 5717 5715 5713 5711 5709 5706 5705 5703 5701 5699 5697
5753 5752 5751 5749 5748 5746 5745 5744 5742 5740 5739 5737 5736 5734 5732 5734 5733 5734 5732 5729 5723 5719 5722 5728 5729 5730 5728 5726 5723 5721 5719 5717 5715 5712 5710 5708 5706 5704 5701 5699 5697 5695 5693
5749 5749 5748 5746 5745 5744 5743 5742 5741 5739 5736 5735 5733 5731 5730 5731 5730 5730 5729 5727 5725 5720 5719 5724 5724 5725 5723 5722 5718 5716 5714 5712 5710 5708 5706 5704 5702 5699 5697 5694 5692 5690 5688
5745 5744 5744 5742 5741 5740 5739 5738 5737 5735 5733 5732 5731 5729 5727 5727 5726 5725 5725 5723 5722 5719 5715 5718 5719 5719 5715 5713 5711 5710 5709 5706 5705 5702 5700 5698 5696 5693 5691 5688 5686 5684 5681
5740 5740 5739 5738 5737 5736 5734 5733 5732 5731 5730 5728 5726 5725 5723 5722 5720 5719 5718 5717 5715 5714 5711 5708 5710 5710 5707 5705 5704 5702 5702 5701 5698 5695 5693 5690 5688 5686 5684 5681 5679 5676 5674
5735 5734 5734 5733 5732 5731 5730 5729 5727 5726 5725 5723 5722 5720 5718 5716 5713 5712 5710 5710 5709 5709 5706 5703 5702 5702 5700 5698 5696 5695 5693 5691 5690 5687 5684 5682 5680 5677 5675 5673 5670 5668 5666
5729 5728 5728 5727 5726 5725 5725 5723 5722 5720 5719 5717 5715 5713 5711 5709 5707 5705 5703 5702 5702 5700 5699 5696 5695 5693 5692 5690 5688 5686 5683 5682 5680 5679 5676 5673 5670 5667 5665 5663 5660 5659 5657
5723 5722 5721 5720 5719 5719 5718 5717 5716 5713 5711 5709 5707 5705 5703 5701 5699 5697 5696 5695 5694 5692 5691 5689 5687 5685 5682 5680 5679 5678 5675 5672 5670 5669 5667 5664 5662 5659 5655 5652 5649 5647 5645
5717 5716 5714 5712 5711 5710 5708 5707 5707 5706 5703 5701 5699 5698 5696 5694 5691 5688 5686 5685 5684 5683 5682 5680 5678 5674 5672 5671 5669 5668 5666 5663 5659 5657 5656 5652 5651 5648 5645 5641 5637 5635 5633
5710 5708 5706 5704 5702 5699 5698 5697 5697 5697 5695 5693 5692 5690 5688 5686 5683 5681 5678 5676 5673 5671 5670 5670 5667 5663 5662 5661 5659 5658 5654 5652 5648 5646 5645 5641 5639 5635 5632 5628 5625 5622 5620
5703 5700 5697 5696 5693 5690 5688 5688 5688 5688 5687 5685 5683 5681 5679 5676 5674 5671 5670 5666 5663 5661 5659 5657 5655 5652 5651 5649 5648 5646 5644 5641 5638 5636 5634 5631 5627 5624 5621 5616 5612 5609 5607
5694 5691 5689 5686 5685 5682 5680 5679 5679 5680 5678 5675 5673 5671 5669 5666 5662 5661 5660 5656 5652 5648 5645 5643 5641 5639 5637 5636 5636 5637 5634 5632 5628 5624 5622 5618 5614 5612 5610 5605 5600 5597 5594
5686 5684 5681 5678 5676 5673 5670 5671 5671 5673 5669 5667 5663 5660 5656 5654 5651 5650 5649 5646 5641 5638 5636 5634 5630 5628 5627 5625 5623 5623 5623 5621 5618 5614 5609 5606 5604 5601 5598 5594 5590 5586 5583